• In Russia
  • List of Countries
  • For 7 days
  • Water Temperature
  • Satellite Maps
  • Weather Map
  • Weather Widgets
  • user-avatar
    Login

    Hourly Weather Kalemie

    Today, 24 March, Sunday

    Time Temperature Precipitation Wind Pressure Humidity
    00:00 +31°C° 0 mm 2 mps 703 mmHg 34%
    01:00 +30°C° 0 mm 1 mps 702 mmHg 36%
    02:00 +29°C° 0 mm 1 mps 702 mmHg 38%
    03:00 +29°C° 0 mm 1 mps 702 mmHg 39%
    04:00 +29°C° 0 mm 1 mps 702 mmHg 40%
    05:00 +28°C° 0 mm 1 mps 702 mmHg 41%
    06:00 +30°C° 0 mm 1 mps 703 mmHg 37%
    07:00 +32°C° 0 mm 2 mps 704 mmHg 33%
    08:00 +35°C° 0 mm 3 mps 705 mmHg 29%
    09:00 +37°C° 0.2 mm 3 mps 705 mmHg 26%
    10:00 +39°C° 0.2 mm 3 mps 705 mmHg 24%
    11:00 +42°C° 0.2 mm 3 mps 705 mmHg 21%
    12:00 +42°C° 0 mm 3 mps 704 mmHg 20%
    13:00 +40°C° 0 mm 3 mps 704 mmHg 18%
    14:00 +40°C° 0 mm 3 mps 703 mmHg 17%
    15:00 +40°C° 0 mm 3 mps 703 mmHg 16%
    16:00 +40°C° 0 mm 3 mps 702 mmHg 15%
    17:00 +40°C° 0 mm 2 mps 702 mmHg 14%
    18:00 +37°C° 0 mm 2 mps 702 mmHg 17%
    19:00 +35°C° 0 mm 2 mps 702 mmHg 19%
    20:00 +32°C° 0 mm 1 mps 702 mmHg 21%
    21:00 +31°C° 0 mm 1 mps 702 mmHg 22%
    22:00 +31°C° 0 mm 1 mps 702 mmHg 23%
    23:00 +30°C° 0 mm 1 mps 703 mmHg 24%

    Tomorrow, 25 March, Monday

    Time Temperature Precipitation Wind Pressure Humidity
    00:00 +30°C° 0 mm 2 mps 702 mmHg 27%
    01:00 +29°C° 0 mm 2 mps 702 mmHg 30%
    02:00 +28°C° 0 mm 3 mps 702 mmHg 32%
    03:00 +27°C° 0 mm 2 mps 702 mmHg 41%
    04:00 +27°C° 0 mm 2 mps 702 mmHg 50%
    05:00 +26°C° 0 mm 1 mps 702 mmHg 59%
    06:00 +27°C° 0 mm 2 mps 703 mmHg 56%
    07:00 +29°C° 0 mm 2 mps 704 mmHg 53%
    08:00 +31°C° 0 mm 3 mps 705 mmHg 50%
    09:00 +35°C° 0 mm 3 mps 705 mmHg 42%
    10:00 +37°C° 0 mm 3 mps 705 mmHg 33%
    11:00 +40°C° 0 mm 3 mps 706 mmHg 25%
    12:00 +42°C° 0 mm 2 mps 705 mmHg 22%
    13:00 +45°C° 0 mm 2 mps 704 mmHg 19%
    14:00 +46°C° 0 mm 1 mps 704 mmHg 15%
    15:00 +42°C° 0.1 mm 2 mps 703 mmHg 22%
    16:00 +39°C° 0.1 mm 3 mps 702 mmHg 29%
    17:00 +35°C° 0.1 mm 4 mps 701 mmHg 37%
    18:00 +34°C° 0 mm 3 mps 702 mmHg 40%
    19:00 +32°C° 0 mm 2 mps 702 mmHg 44%
    20:00 +31°C° 0 mm 2 mps 703 mmHg 48%
    21:00 +30°C° 0 mm 2 mps 703 mmHg 51%
    22:00 +30°C° 0 mm 2 mps 704 mmHg 54%
    23:00 +29°C° 0 mm 3 mps 704 mmHg 56%

    Day after tomorrow, 26 March, Tuesday

    Time Temperature Precipitation Wind Pressure Humidity
    00:00 +28°C° 0 mm 2 mps 704 mmHg 59%
    01:00 +28°C° 0 mm 2 mps 703 mmHg 62%
    02:00 +27°C° 0 mm 1 mps 703 mmHg 64%
    03:00 +27°C° 0 mm 2 mps 703 mmHg 65%
    04:00 +27°C° 0 mm 2 mps 703 mmHg 67%
    05:00 +26°C° 0 mm 3 mps 703 mmHg 68%
    06:00 +27°C° 0 mm 3 mps 704 mmHg 66%
    07:00 +28°C° 0 mm 3 mps 705 mmHg 65%
    08:00 +28°C° 0 mm 3 mps 706 mmHg 63%
    09:00 +29°C° 0 mm 2 mps 706 mmHg 61%
    10:00 +30°C° 0 mm 2 mps 706 mmHg 59%
    11:00 +30°C° 0 mm 2 mps 707 mmHg 56%
    12:00 +31°C° 0 mm 2 mps 706 mmHg 54%
    13:00 +32°C° 0 mm 2 mps 705 mmHg 51%
    14:00 +32°C° 0 mm 2 mps 704 mmHg 48%
    15:00 +35°C° 0 mm 2 mps 704 mmHg 41%
    16:00 +36°C° 0 mm 2 mps 704 mmHg 35%
    17:00 +38°C° 0 mm 2 mps 704 mmHg 28%
    18:00 +35°C° 0.6 mm 2 mps 704 mmHg 36%
    19:00 +32°C° 0.6 mm 1 mps 705 mmHg 44%
    20:00 +30°C° 0.6 mm 1 mps 705 mmHg 53%
    21:00 +29°C° 0.2 mm 1 mps 705 mmHg 57%
    22:00 +28°C° 0.2 mm 1 mps 705 mmHg 62%
    23:00 +27°C° 0.2 mm 1 mps 706 mmHg 67%

    27 March, Wednesday

    Time Temperature Precipitation Wind Pressure Humidity
    00:00 +27°C° 0 mm 1 mps 705 mmHg 70%
    01:00 +26°C° 0 mm 2 mps 704 mmHg 73%
    02:00 +26°C° 0 mm 2 mps 704 mmHg 75%
    03:00 +25°C° 0 mm 2 mps 704 mmHg 77%
    04:00 +25°C° 0 mm 3 mps 704 mmHg 78%
    05:00 +25°C° 0 mm 3 mps 705 mmHg 80%
    06:00 +26°C° 0 mm 3 mps 706 mmHg 77%
    07:00 +26°C° 0 mm 2 mps 706 mmHg 74%
    08:00 +27°C° 0 mm 2 mps 707 mmHg 71%
    09:00 +28°C° 0.3 mm 2 mps 708 mmHg 66%
    10:00 +30°C° 0.3 mm 2 mps 708 mmHg 60%
    11:00 +31°C° 0.3 mm 2 mps 708 mmHg 55%
    12:00 +30°C° 1.7 mm 1 mps 707 mmHg 62%
    13:00 +28°C° 1.7 mm 1 mps 707 mmHg 69%
    14:00 +27°C° 1.7 mm 1 mps 706 mmHg 76%
    15:00 +27°C° 0 mm 1 mps 705 mmHg 74%
    16:00 +25°C° 0 mm 0 mps 705 mmHg 71%
    17:00 +26°C° 0 mm 0 mps 705 mmHg 69%
    18:00 +25°C° 0 mm 0 mps 705 mmHg 71%
    19:00 +24°C° 0 mm 0 mps 705 mmHg 73%
    20:00 +25°C° 0 mm 1 mps 706 mmHg 75%
    21:00 +25°C° 0 mm 1 mps 706 mmHg 75%
    22:00 +24°C° 0 mm 1 mps 706 mmHg 76%
    23:00 +24°C° 0 mm 1 mps 706 mmHg 76%

    28 March, Thursday

    Time Temperature Precipitation Wind Pressure Humidity
    00:00 +24°C° 0 mm 2 mps 705 mmHg 77%
    01:00 +23°C° 0 mm 2 mps 705 mmHg 78%
    02:00 +23°C° 0 mm 2 mps 705 mmHg 78%
    03:00 +23°C° 0 mm 1 mps 705 mmHg 81%
    04:00 +23°C° 0 mm 1 mps 705 mmHg 84%
    05:00 +23°C° 0 mm 1 mps 705 mmHg 87%
    06:00 +25°C° 0 mm 1 mps 706 mmHg 79%
    07:00 +27°C° 0 mm 1 mps 707 mmHg 71%
    08:00 +29°C° 0 mm 1 mps 708 mmHg 63%
    09:00 +32°C° 0 mm 1 mps 708 mmHg 52%
    10:00 +36°C° 0 mm 1 mps 708 mmHg 41%
    11:00 +40°C° 0 mm 1 mps 709 mmHg 30%
    12:00 +40°C° 0 mm 1 mps 708 mmHg 29%
    13:00 +40°C° 0 mm 2 mps 707 mmHg 28%
    14:00 +40°C° 0 mm 2 mps 706 mmHg 27%
    15:00 +39°C° 0 mm 2 mps 705 mmHg 28%
    16:00 +39°C° 0 mm 2 mps 705 mmHg 28%
    17:00 +37°C° 0 mm 1 mps 705 mmHg 29%
    18:00 +36°C° 0 mm 2 mps 705 mmHg 36%
    19:00 +32°C° 0 mm 2 mps 705 mmHg 43%
    20:00 +30°C° 0 mm 2 mps 705 mmHg 51%
    21:00 +29°C° 0 mm 2 mps 705 mmHg 58%
    22:00 +28°C° 0 mm 2 mps 706 mmHg 64%
    23:00 +27°C° 0 mm 2 mps 706 mmHg 71%

    29 March, Friday

    Time Temperature Precipitation Wind Pressure Humidity
    00:00 +27°C° 0 mm 2 mps 705 mmHg 72%
    01:00 +27°C° 0 mm 2 mps 705 mmHg 73%
    02:00 +26°C° 0 mm 3 mps 704 mmHg 75%
    03:00 +26°C° 0 mm 2 mps 705 mmHg 76%
    04:00 +26°C° 0 mm 2 mps 705 mmHg 78%
    05:00 +25°C° 0 mm 2 mps 705 mmHg 80%
    06:00 +26°C° 0 mm 2 mps 706 mmHg 76%
    07:00 +27°C° 0 mm 2 mps 707 mmHg 71%
    08:00 +28°C° 0 mm 2 mps 707 mmHg 67%
    09:00 +32°C° 0 mm 1 mps 708 mmHg 55%
    10:00 +36°C° 0 mm 1 mps 708 mmHg 43%
    11:00 +38°C° 0 mm 0 mps 708 mmHg 31%
    12:00 +38°C° 0 mm 0 mps 707 mmHg 30%
    13:00 +38°C° 0 mm 0 mps 706 mmHg 30%
    14:00 +38°C° 0 mm 0 mps 705 mmHg 29%
    15:00 +37°C° 0 mm 0 mps 705 mmHg 29%
    16:00 +36°C° 0 mm 0 mps 704 mmHg 29%
    17:00 +36°C° 0 mm 0 mps 704 mmHg 29%
    18:00 +34°C° 0 mm 0 mps 704 mmHg 32%
    19:00 +32°C° 0 mm 0 mps 704 mmHg 36%
    20:00 +30°C° 0 mm 0 mps 705 mmHg 39%
    21:00 +31°C° 0 mm 1 mps 705 mmHg 44%
    22:00 +30°C° 0 mm 1 mps 705 mmHg 49%
    23:00 +29°C° 0 mm 2 mps 705 mmHg 54%
    Show more